EW5466 Weather Reports


Display with metric or nautical units.
time (UTC)temp
F
wind
direction
speed
MPH
gust
MPH
rain 1hr
in
rain 24hr
in
rain mn
in
humidity
%
barometer
mb
20260503203304 46 210 12.0 16.0 0.04 0.10 0.10 90 1007.9
20260503202802 46 222 11.0 16.0 0.05 0.10 0.10 90 1008.0
20260503202257 46 226 12.0 17.0 0.05 0.09 0.09 90 1008.0
20260503201746 46 210 12.0 17.0 0.04 0.08 0.08 90 1008.0
20260503201244 46 210 11.0 16.0 0.05 0.08 0.08 90 1008.1
20260503200739 46 228 11.0 16.0 0.06 0.08 0.08 90 1008.1
20260503200228 46 228 10.0 15.0 0.05 0.07 0.07 90 1008.1
20260503195951 46 219 11.0 16.0 0.06 0.07 0.07 89 1008.1
20260503195216 46 210 11.0 16.0 0.07 0.07 0.07 89 1008.1
20260503194714 46 232 10.0 17.0 0.07 0.07 0.07 90 1008.1
20260503194204 46 224 11.0 18.0 0.06 0.06 0.06 90 1008.7
20260503193703 46 181 11.0 18.0 0.06 0.06 0.06 89 1008.7
20260503193157 46 246 11.0 18.0 0.05 0.05 0.06 89 1008.7
20260503192646 46 265 10.0 16.0 0.05 0.05 0.05 89 1009.1
20260503192145 46 247 11.0 18.0 0.04 0.04 0.04 88 1009.1
20260503191634 47 246 12.0 20.0 0.04 0.04 0.04 87 1009.1
20260503191132 47 256 13.0 22.0 0.03 0.03 0.03 86 1009.1
20260503190626 47 262 15.0 27.0 0.02 0.02 0.02 85 1009.1
20260503190121 48 252 17.0 27.0 0.01 0.01 0.02 83 1009.1
20260503185614 49 281 20.0 32.0 0.01 0.01 0.01 81 1008.8
20260503185553 50 253 22.0 34.0 0.00 0.00 0.00 76 1008.8
20260503184821 52 254 23.0 39.0 0.00 0.00 0.00 72 1008.3
20260503184056 53 288 25.0 39.0 0.00 0.00 0.00 66 1008.3
20260503183549 55 248 26.0 38.0 0.00 0.00 0.00 63 1008.3
20260503183308 56 252 24.0 38.0 0.00 0.00 0.00 59 1008.0
20260503182533 57 273 22.0 36.0 0.00 0.00 0.00 58 1008.0
20260503182032 57 234 21.0 33.0 0.00 0.00 0.00 57 1008.0
20260503181522 57 269 21.0 33.0 0.00 0.00 0.00 56 1008.2
20260503181020 57 252 18.0 31.0 0.00 0.00 0.00 57 1008.2
20260503180956 57 263 16.0 29.0 0.00 0.00 0.00 59 1008.2
20260503180004 56 262 16.0 29.0 0.00 0.00 0.00 58 1008.5
20260503175724 57 282 17.0 29.0 0.00 0.00 0.00 57 1008.5
20260503174952 57 254 16.0 26.0 0.00 0.00 0.00 57 1008.5
20260503174450 57 254 15.0 26.0 0.00 0.00 0.00 56 1008.7
20260503173939 58 261 15.0 23.0 0.00 0.00 0.00 56 1008.7
20260503173439 58 239 15.0 22.0 0.00 0.00 0.00 56 1008.7
20260503173148 57 263 17.0 27.0 0.00 0.00 0.00 56 1008.7
20260503172421 57 263 17.0 27.0 0.00 0.00 0.00 57 1008.7
20260503172141 56 239 14.0 26.0 0.00 0.00 0.00 59 1008.7
20260503171415 56 253 13.0 23.0 0.00 0.00 0.00 59 1009.1
20260503171130 55 236 14.0 23.0 0.00 0.00 0.00 57 1009.1
20260503170358 55 256 16.0 25.0 0.00 0.00 0.00 56 1009.1
20260503170117 55 257 17.0 25.0 0.00 0.00 0.00 55 1009.3
20260503150804 52 215 14.0 19.0 0.00 0.00 0.00 59 1010.2
20260503150304 51 246 13.0 20.0 0.00 0.00 0.00 59 1010.2
20260503140158 47 179 11.0 16.0 0.00 0.00 0.00 67 1010.7
20260503131054 44 186 8.0 12.0 0.00 0.00 0.00 71 1011.4
20260503130548 43 191 7.0 11.0 0.00 0.00 0.00 72 1011.4
20260503120157 35 210 6.0 9.0 0.00 0.00 0.00 84 1011.9
20260503110824 31 196 6.0 8.0 0.00 0.00 0.00 84 1011.8
20260503110322 31 200 6.0 7.0 0.00 0.00 0.00 85 1011.8
20260503100245 30 205 6.0 7.0 0.00 0.00 0.00 83 1011.8
20260503090236 31 210 6.0 7.0 0.00 0.00 0.00 81 1011.9
20260503081234 31 210 5.0 7.0 0.00 0.00 0.00 80 1012.0
20260503080732 31 236 5.0 7.0 0.00 0.00 0.00 80 1012.0
20260503080232 31 194 6.0 8.0 0.00 0.00 0.00 79 1012.0
20260503072646 31 170 8.0 10.0 0.00 0.00 0.00 78 1011.9
20260503072409 31 174 8.0 10.0 0.00 0.00 0.00 78 1011.9
20260503071646 31 177 8.0 10.0 0.00 0.00 0.00 78 1011.9
20260503071406 31 156 8.0 10.0 0.00 0.00 0.00 78 1012.0
20260503070646 31 184 7.0 10.0 0.00 0.00 0.00 77 1012.0
20260503070146 31 178 7.0 11.0 0.00 0.00 0.00 77 1012.0
20260503055117 31 177 6.0 8.0 0.00 0.00 0.00 73 1012.9
20260503054618 31 177 6.0 8.0 0.00 0.00 0.00 73 1012.9
20260503054118 31 175 6.0 9.0 0.00 0.00 0.00 73 1013.0
20260503053618 31 175 6.0 9.0 0.00 0.00 0.00 73 1013.0
20260503053118 31 194 6.0 8.0 0.00 0.00 0.00 73 1013.0
20260503052611 31 169 6.0 8.0 0.00 0.00 0.00 73 1013.4
20260503052059 31 174 6.0 7.0 0.00 0.00 0.00 73 1013.4
20260503051547 31 177 5.0 7.0 0.00 0.00 0.00 72 1013.5
20260503051037 31 165 5.0 6.0 0.00 0.00 0.00 72 1013.5
20260503050537 31 165 5.0 6.0 0.00 0.00 0.00 73 1013.5
20260503050037 31 173 4.0 6.0 0.00 0.00 0.00 74 1013.5
20260503045538 31 168 4.0 5.0 0.00 0.00 0.00 74 1013.5
20260503045038 31 170 4.0 5.0 0.00 0.00 0.00 74 1013.5
20260503044537 31 178 4.0 5.0 0.00 0.00 0.00 73 1013.6
20260503044244 31 188 4.0 5.0 0.00 0.00 0.00 72 1013.6
20260503044228 31 181 4.0 5.0 0.00 0.00 0.00 72 1013.6
20260503043035 31 187 4.0 5.0 0.00 0.00 0.00 72 1013.8
20260503042524 31 190 4.0 5.0 0.00 0.00 0.00 72 1013.8
20260503042017 31 189 4.0 5.0 0.00 0.00 0.00 72 1013.8
20260503041517 31 188 4.0 5.0 0.00 0.00 0.00 72 1013.9
20260503041243 31 179 4.0 5.0 0.00 0.00 0.00 73 1013.9
20260503040517 31 196 4.0 4.0 0.00 0.00 0.00 72 1013.9
20260503040016 31 196 3.0 4.0 0.00 0.00 0.00 72 1014.0
20260503035516 31 196 3.0 4.0 0.00 0.00 0.00 73 1014.0
20260503035014 32 215 3.0 4.0 0.00 0.00 0.00 72 1014.0
20260503034512 32 215 3.0 4.0 0.00 0.00 0.00 71 1014.0
20260503034010 32 223 3.0 4.0 0.00 0.00 0.00 71 1014.0
20260503033510 32 234 3.0 4.0 0.00 0.00 0.00 70 1014.0
20260503033452 32 234 3.0 4.0 0.00 0.00 0.00 70 1014.0
20260503032508 32 234 3.0 4.0 0.00 0.00 0.00 70 1014.0
20260503032006 32 234 4.0 4.0 0.00 0.00 0.00 70 1014.0
20260503031728 32 234 4.0 5.0 0.00 0.00 0.00 70 1014.0
20260503031005 32 234 4.0 5.0 0.00 0.00 0.00 70 1014.0
20260503030454 32 236 4.0 5.0 0.00 0.00 0.00 70 1014.0
20260503025952 32 238 5.0 6.0 0.00 0.00 0.00 70 1014.1
20260503025445 32 238 5.0 6.0 0.00 0.00 0.00 70 1014.1
20260503024941 32 242 5.0 6.0 0.00 0.00 0.00 70 1014.1
20260503024440 33 237 5.0 6.0 0.00 0.00 0.00 69 1014.3
20260503023941 33 234 4.0 5.0 0.00 0.00 0.00 69 1014.3
20260503023439 33 230 4.0 5.0 0.00 0.00 0.00 69 1014.3
20260503022941 33 230 4.0 5.0 0.00 0.00 0.00 68 1014.3
20260503022440 33 239 4.0 4.0 0.00 0.00 0.00 67 1014.3
20260503022207 33 242 4.0 5.0 0.00 0.00 0.00 67 1014.3
20260503021440 33 241 3.0 5.0 0.00 0.00 0.00 67 1014.3
20260503020938 34 243 3.0 4.0 0.00 0.00 0.00 67 1014.3
20260503020436 34 247 3.0 4.0 0.00 0.00 0.00 66 1014.3
20260503015936 34 247 3.0 4.0 0.00 0.00 0.00 66 1014.2
20260503015657 34 247 4.0 4.0 0.00 0.00 0.00 66 1014.2
20260503014936 34 247 4.0 4.0 0.00 0.00 0.00 66 1014.2
20260503014655 35 247 3.0 4.0 0.00 0.00 0.00 65 1014.1
20260503013936 35 247 3.0 4.0 0.00 0.00 0.00 65 1014.1
20260503013435 35 259 4.0 5.0 0.00 0.00 0.00 62 1014.1
20260503012933 35 262 4.0 5.0 0.00 0.00 0.00 62 1014.1
20260503012655 36 256 3.0 4.0 0.00 0.00 0.00 61 1014.1
20260503012147 36 251 3.0 4.0 0.00 0.00 0.00 60 1014.1
20260503011420 37 269 3.0 4.0 0.00 0.00 0.00 59 1014.0
20260503010914 37 269 4.0 5.0 0.00 0.00 0.00 59 1014.0
20260503010404 37 269 4.0 5.0 0.00 0.00 0.00 59 1014.0
20260503005902 38 270 4.0 5.0 0.00 0.00 0.00 59 1014.0
20260503005351 38 268 4.0 8.0 0.00 0.00 0.00 58 1014.0
20260503004850 38 262 4.0 8.0 0.00 0.00 0.00 57 1014.0
20260503004606 38 269 5.0 8.0 0.00 0.00 0.00 57 1014.0
20260503003834 39 288 6.0 8.0 0.00 0.00 0.00 57 1014.0
20260503003333 39 278 6.0 9.0 0.00 0.00 0.00 56 1014.0
20260503002826 39 285 7.0 10.0 0.00 0.00 0.00 56 1014.0
20260503002540 40 273 8.0 11.0 0.00 0.00 0.00 56 1014.0
20260503001809 40 302 7.0 11.0 0.00 0.00 0.00 55 1014.0
20260503001529 40 288 7.0 10.0 0.00 0.00 0.00 54 1014.0
20260503000806 41 277 8.0 12.0 0.00 0.00 0.00 54 1014.0
20260503000531 41 272 9.0 14.0 0.00 0.00 0.00 53 1014.0
20260502235806 41 284 10.0 15.0 0.00 0.00 0.00 54 1014.0
20260502235756 41 306 11.0 16.0 0.00 0.00 0.00 53 1014.0
20260502234806 42 274 11.0 16.0 0.00 0.00 0.00 54 1014.0
20260502234307 42 300 10.0 15.0 0.00 0.00 0.00 54 1014.0
20260502233806 42 305 10.0 17.0 0.00 0.00 0.00 52 1014.0
20260502233304 42 274 12.0 18.0 0.00 0.00 0.00 52 1014.0
20260502232802 42 304 11.0 18.0 0.00 0.00 0.00 51 1014.0
20260502232304 43 286 9.0 15.0 0.00 0.00 0.00 50 1014.0
20260502231802 43 290 11.0 19.0 0.00 0.00 0.00 53 1014.0
20260502231302 43 315 13.0 19.0 0.00 0.00 0.00 50 1014.0
20260502230802 43 313 13.0 17.0 0.00 0.00 0.00 52 1014.0
20260502230301 44 315 12.0 19.0 0.00 0.00 0.00 50 1014.0
20260502225801 44 331 13.0 19.0 0.00 0.00 0.00 49 1014.0
20260502225300 44 317 11.0 17.0 0.00 0.00 0.00 51 1014.0
20260502225015 44 320 10.0 21.0 0.00 0.00 0.00 51 1014.0
20260502224249 44 325 12.0 21.0 0.00 0.00 0.00 51 1014.0
20260502223742 44 335 13.0 22.0 0.00 0.00 0.00 49 1014.0
20260502223236 45 326 12.0 22.0 0.00 0.00 0.00 49 1014.0
20260502222948 45 259 12.0 19.0 0.00 0.00 0.00 47 1014.0
20260502222219 45 272 11.0 19.0 0.00 0.00 0.00 50 1014.0
20260502221718 45 315 10.0 15.0 0.00 0.00 0.00 47 1014.0
20260502221434 45 314 10.0 16.0 0.00 0.00 0.00 52 1014.1
20260502220926 45 256 10.0 22.0 0.00 0.00 0.00 52 1014.1
20260502220204 45 304 11.0 22.0 0.00 0.00 0.00 52 1014.1
20260502215932 45 254 13.0 22.0 0.00 0.00 0.00 53 1014.1
20260502215204 44 294 14.0 22.0 0.00 0.00 0.00 55 1014.1
20260502214704 44 288 12.0 21.0 0.00 0.00 0.00 55 1014.1
20260502214204 44 307 15.0 25.0 0.00 0.00 0.00 57 1014.0
20260502213704 44 299 15.0 25.0 0.00 0.00 0.00 54 1014.0
20260502213204 44 314 12.0 19.0 0.00 0.00 0.00 56 1014.0
20260502212704 43 296 13.0 23.0 0.00 0.00 0.00 57 1014.1
20260502212204 43 300 17.0 27.0 0.00 0.00 0.00 58 1014.1
20260502211703 43 323 19.0 27.0 0.00 0.00 0.00 57 1014.1
20260502211204 43 308 17.0 23.0 0.00 0.00 0.00 57 1014.2
20260502210703 43 309 17.0 24.0 0.00 0.00 0.00 60 1014.2
20260502210204 43 300 17.0 24.0 0.00 0.00 0.00 60 1014.2
20260502205705 43 327 17.0 27.0 0.00 0.00 0.00 61 1014.1
20260502205204 44 315 16.0 27.0 0.00 0.00 0.00 56 1014.1
20260502204657 44 315 15.0 26.0 0.00 0.00 0.00 62 1014.1
20260502204154 43 309 15.0 26.0 0.00 0.00 0.00 62 1014.3
20260502203648 42 289 16.0 25.0 0.00 0.00 0.00 63 1014.3